sat.trackr.live / text

‹ back to catalog

2024-205F

NORAD 61899 · 2024-205F

PAYLOAD ACTIVE UNKNOWN

§ Identity

Operator
Country
PRC
Launch date
2024-11-11
Launch site
JSC
Launch vehicle
Mass (kg)
RCS (m²)

External: N2YO · Heavens-Above · Gunter

§ Orbital elements

Epoch: 2026-09-22T23:40:49.270368Z

Period
94.95 min
Inclination
97.4016°
Eccentricity
0.0007447
Mean motion
15.16652388 rev/d
Perigee alt
510.8 km
Apogee alt
521.1 km
Semi-major
6,894.1 km
B*
2.7668e-4
RAAN
334.9566°
Arg perigee
58.4481°
Mean anomaly
301.7479°
Rev number
10,309

§ Raw data

2024-205F1 61899U 24205F   26265.98668137  .00005351  00000+0  27668-3 0  99902 61899  97.4016 334.9566 0007447  58.4481 301.7479 15.16652388103099

JSON: /api/v1/satellites/61899 · /tle

For live sub-satellite position, see the globe view (requires WebGL).

§ Visibility from observer

Set your observer location to see the next 7 days of passes ≥ 10°. The values pass through the URL so the page stays shareable.

No JS? Fill the form by hand. The geolocation button needs JavaScript.